Probability
0 0 0 0 0 0 0 0 0 0 0 0 0 0 0 0 0 0 0 0 0 0 0 0 0 0 0 0 0 0 0 0 0 0 0 0 0 0 0 0 0 0 0 0
0 0 0 0 0 0 0 0 0 0 0 0 0 0 0 0 0 0 0 0 0 0 0 0 0 0 0 0 0 0 0 0 0 0 0 0 0 0 0 0 0 0 0 0
0 0 0 0 0 0 0 0 0 0 0 0 0 0 0 0 0 0 0 0 0 0 0 0 0 0 0 0 0 0 0 0 0 0 0 0 0 0 0 0 0 0 0 0
0 0 0 0 0 0 0 0 0 0 0 0 0 0 0 0 0 0 0 0 0 0 0 0 0 0 0 0 0 0 0 0 0 0 0 0 0 0 0 0 0 0 0 0
0 0 0 0 0 0 0 0 0 0 0 0 0 0 0 0 0 0 0 0 0 0 0 0 0 0 0 0 0 0 0 0 0 0 0 0 0 0 0 0 0 0 0 0
0 0 0 0 0 0 0 0 0 0 0 0 0 0 0 0 0 0 0 0 0 0 0 0 0 0 0 0 0 0 0 0 0 0 0 0 0 0 0 0 0 0 0 0
0 0 0 0 0 0 0 0 0 0 0 0 0 0 0 0 0 0 0 0 0 0 0 0 0 0 0 0 0 0 0 0 0 0 0 0 0 0 0 0 0 0 0 0
0 0 0 0 0 0 0 0 0 0 0 0 0 0 0 0 0 0 0 0 0 0 0 0 0 0 0 0 0 0 0 0 0 0 0 0 0 0 0 0 0 0 0 0
0 0 0 0 0 0 0 0 0 0 0 0 0 0 0 0 0 0 0 0 0 0 0 0 0 0 0 0 0 0 0 0 0 0 0 0 0 0 0 0 0 0 0 0
0 0 0 0 0 0 0 0 0 0 0 0 0 0 0 0 0 0 0 0 0 0 0 0 0 0 0 0 0 0 0 0 0 0 0 0 0 0 0 0 0 0 0 0
0 0 0 0 0 0 0 0 0 0 0 0 0 0 0 0 0 0 0 0 0 0 0 0 0 0 0 0 0 0 0 0 0 0 0 0 0 0 0 0 0 0 0 0
0 0 0 0 0 0 0 0 0 0 0 0 0 0 0 0 0 0 0 0 0 0 0 0 0 0 0 0 0 0 0 0 0 0 0 0 0 0 0 0 0 0 0 0
0 0 0 0 0 0 0 0 0 0 0 0 0 0 0 0 0 0 0 0 0 0 0 0 0 0 0 0 0 0 0 0 0 0 0 0 0 0 0 0 0 0 0 0
0 0 0 0 0 0 0 0 0 0 0 0 0 0 0 0 0 0 0 0 0 0 0 0 0 0 0 0 0 0 0 0 0 0 0 0 0 0 0 0 0 0 0 0
0 0 0 0 0 0 0 0 0 0 0 0 0 0 0 0 0 0 0 0 0 0 0 0 0 0 0 0 0 0 0 0 0 0 0 0 0 0 0 0 0 0 0 0
0 0 0 0 0 0 0 0 0 0 0 0 0 0 0 0 0 0 0 0 0 0 0 0 0 0 0 0 0 0 0 0 0 0 0 0 0 0 0 0 0 0 0 0
0 0 0 0 0 0 0 0 0 0 0 0 0 0 0 0 0 0 0 0 0 0 0 0 0 0 0 0 0 0 0 0 0 0 0 0 0 0 0 0 0 0 0 0
0 0 0 0 0 0 0 0 0 0 0 0 0 0 0 0 0 0 0 0 0 0 0 0 0 0 0 0 0 0 0 0 0 0 0 0 0 0 0 0 0 0 0 0
0 0 0 0 0 0 0 0 0 0 0 0 0 0 0 0 0 0 0 0 0 0 0 0 0 0 0 0 0 0 0 0 0 0 0 0 0 0 0 0 0 0 0 0
0 0 0 0 0 0 0 0 0 0 0 0 0 0 0 0 0 0 0 0 0 0 0 0 0 0 0 0 0 0 0 0 0 0 0 0 0 0 0 0 0 0 0 0
0 0 0 0 0 0 0 0 0 0 0 0 0 0 0 0 0 0 0 0 0 0 0 0 0 0 0 0 0 0 0 0 0 0 0 0 0 0 0 0 0 0 0 0
0 0 0 0 0 0 0 0 0 0 0 0 0 0 0 0 0 0 0 0 0 0 0 0 0 0 0 0 0 0 0 0 0 0 0 0 0 0 0 0 0 0 0 0
0 0 0 0 0 0 0 0 0 0 0 0 0 0 0 0 0 0 0 0 0 0 0 0 0 0 0 0 0 0 0 0 0 0 0 0 0 0 0 0 0 0 0 0
0 0 0 0 0 0 0 0 0 0 0 0 0 0 0 0 0 0 0 0 0 0 0 0 0 0 0 0 0 0 0 0 0 0 0 0 0 0 0 0 0 0 0 0
0 0 0 0 0 0 0 0 0 0 0 0 0 0 0 0 0 0 0 0 0 0 0 0 0 0 0 0 0 0 0 0 0 0 0 0 0 0 0 0 0 0 0 0
0 0 0 0 0 0 0 0 0 0 0 0 0 0 0 0 0 0 0 0 0 0 0 0 0 0 0 0 0 0 0 0 0 0 0 0 0 0 0 0 0 0 0 0
0 0 0 0 0 0 0 0 0 0 0 0 0 0 0 0 0 0 0 0 0 0 0 0 0 0 0 0 0 0 0 0 0 0 0 0 0 0 0 0 0 0 0 0
Wind_Speed
11 10 8 10 12 13 14 14 13 15 16 15 10 7 6 4 3 3 3 3 4 3 3 3 3 3 3 2 2 1 1 1 1 1 1 1 1 2 2 2 3 3 3 3
9 9 8 12 16 17 17 16 18 18 20 12 8 6 6 6 5 5 5 5 5 4 4 4 4 4 3 3 2 2 2 2 1 1 1 1 2 2 2 3 3 3 3 3
8 5 5 13 15 16 14 14 14 18 17 8 8 8 8 7 7 7 6 6 5 5 5 5 5 5 4 4 3 3 2 2 1 1 1 2 2 2 2 3 3 3 3 3
5 4 13 9 4 10 13 14 14 14 12 10 9 8 7 7 7 7 6 6 5 5 5 5 4 4 3 3 3 3 3 2 2 2 2 2 2 3 3 3 3 3 3 4
5 9 12 10 5 5 8 12 10 12 11 9 5 5 7 5 5 5 5 5 4 4 4 3 4 3 3 3 3 3 3 3 3 2 3 3 3 3 3 3 3 3 4 4
6 8 11 6 1 2 4 9 4 7 8 6 4 6 5 2 4 4 3 3 3 2 2 2 3 3 4 4 4 4 4 4 3 3 4 4 4 4 3 3 4 3 4 4
11 11 11 4 1 3 6 6 1 4 5 5 6 6 4 3 3 3 3 2 1 2 2 2 2 3 4 4 5 4 3 3 3 3 4 4 3 3 3 3 3 3 4 4
7 10 11 3 5 7 4 2 1 3 4 4 5 5 4 4 3 3 2 1 1 2 2 2 2 3 4 4 3 2 2 3 3 3 3 3 3 3 3 3 3 4 4 4
9 8 1 5 5 3 1 2 3 3 3 3 4 5 5 4 3 3 2 2 2 2 2 1 2 3 4 3 2 2 2 3 3 3 3 3 3 3 3 3 3 3 3 4
6 8 5 4 4 3 2 3 3 3 3 3 4 5 4 4 3 3 2 2 1 2 2 2 2 3 3 2 1 2 3 3 3 3 3 3 3 3 3 4 4 4 4 4
7 7 5 6 6 5 3 3 3 3 3 4 4 4 4 4 3 3 2 2 2 3 3 3 2 3 2 2 2 3 3 3 3 4 3 3 4 4 5 5 5 5 5 5
9 7 6 6 2 3 3 4 4 4 4 4 4 5 4 4 3 3 3 2 2 3 3 3 3 3 3 3 3 4 4 4 3 3 3 3 3 4 6 6 7 8 8 7
6 4 5 4 2 2 4 4 4 4 5 5 4 4 4 4 3 3 3 3 3 3 4 3 3 4 3 3 3 4 5 4 3 4 4 3 4 4 4 4 6 7 8 8
3 3 4 4 3 2 3 4 3 3 4 3 3 3 3 3 3 3 4 4 3 3 3 3 4 4 3 3 4 4 5 5 4 4 4 4 4 4 4 4 4 4 6 8
3 4 5 3 2 1 2 2 2 3 3 3 2 3 3 3 4 4 4 2 2 3 3 3 4 4 3 3 4 4 4 4 4 4 4 4 4 4 4 5 5 5 4 5
3 2 2 3 3 3 2 3 4 5 4 4 4 4 4 4 4 4 3 2 2 4 4 4 5 4 2 3 4 4 4 5 4 3 3 3 4 4 4 4 5 5 5 4
2 3 3 4 4 4 4 5 5 5 5 5 5 4 3 3 3 3 3 2 3 4 4 4 4 3 3 3 4 4 3 3 4 4 4 4 4 4 4 5 5 5 5 6
4 4 4 4 5 5 5 5 5 5 5 5 4 3 3 3 4 4 3 2 2 3 4 3 3 3 3 3 3 3 3 3 3 4 4 4 4 4 5 5 6 6 5 5
3 3 3 3 4 4 4 5 5 5 5 3 3 4 4 4 4 3 2 2 3 4 3 3 4 2 3 4 3 3 3 3 3 3 4 4 4 4 5 5 5 6 5 5
3 3 3 3 3 3 4 5 4 4 3 3 3 3 3 3 2 2 2 3 4 3 3 3 4 3 3 3 3 3 3 4 4 4 4 4 4 5 5 5 5 5 5 5
4 4 4 4 4 4 4 4 4 4 3 2 3 4 4 3 2 2 2 3 3 2 3 3 3 3 3 3 3 3 4 4 4 4 4 4 5 5 5 5 5 5 5 5
3 3 4 4 4 4 4 3 3 3 2 2 2 2 2 2 2 2 3 3 3 3 3 3 3 3 4 4 3 3 4 4 4 4 4 4 4 5 5 5 5 5 5 5
3 4 4 4 4 5 4 3 2 2 2 2 3 3 3 3 2 2 2 2 2 3 3 3 4 5 5 3 3 3 3 4 4 4 4 4 4 4 4 5 5 4 4 4
3 4 4 4 3 3 3 3 2 2 2 2 2 2 2 2 2 2 2 2 3 4 3 4 5 5 4 3 3 3 3 4 4 4 4 4 4 4 4 4 4 4 4 5
3 3 3 3 2 2 3 3 2 2 2 2 2 2 1 2 2 2 2 3 4 4 3 4 5 5 3 3 3 3 3 4 4 4 4 4 4 4 4 4 4 4 4 4
3 3 3 3 3 3 2 2 2 2 2 2 2 2 1 1 1 2 2 2 3 3 3 3 3 3 2 3 3 3 4 4 4 4 4 4 4 4 4 4 5 4 4 4
3 2 2 2 2 2 2 2 2 2 2 2 2 2 2 2 2 2 2 2 2 2 3 3 3 3 3 3 3 3 3 4 4 4 4 4 4 4 4 5 4 4 4 4
Wind_Direction
254 260 245 244 243 231 229 235 244 257 261 266 268 269 268 261 250 243 247 247 238 229 223 222 216 212 209 217 219 214 214 226 242 277 291 295 298 296 279 269 267 263 262 261
254 255 254 257 250 242 240 242 248 259 266 272 273 262 256 252 242 240 246 250 247 239 230 228 224 222 214 217 217 212 213 232 261 279 294 294 295 296 292 285 280 272 264 260
249 262 262 253 240 231 232 233 237 248 257 260 257 253 254 253 248 248 247 248 248 241 235 231 228 222 218 213 207 206 212 226 241 256 273 285 287 286 285 284 279 277 273 265
241 224 240 250 246 228 236 247 243 251 261 260 258 268 268 254 246 255 257 254 252 246 241 236 227 215 209 201 203 209 216 224 234 248 262 276 274 273 282 286 278 273 274 274
215 237 260 269 239 213 228 253 245 245 255 262 267 275 260 243 246 254 259 259 255 247 240 228 212 198 192 200 205 211 222 231 236 240 249 256 262 270 278 279 278 280 277 274
215 232 245 255 201 243 228 255 254 237 245 250 237 257 266 266 275 274 270 258 253 240 213 206 204 188 192 203 209 221 231 239 239 237 241 247 255 265 274 273 275 280 280 276
225 239 255 266 172 173 218 260 274 230 243 240 241 264 296 297 289 282 273 258 230 198 200 206 197 190 203 210 222 233 241 245 245 243 246 251 258 264 268 271 271 272 274 277
209 230 247 154 160 202 242 349 305 265 262 254 263 286 285 277 280 287 274 237 191 195 216 206 188 196 213 226 238 239 236 241 245 248 248 247 251 258 258 254 258 263 268 275
207 226 283 163 199 226 293 272 281 274 275 262 266 269 274 274 273 274 257 240 212 207 222 218 203 210 226 243 241 231 235 244 250 253 250 246 243 246 250 245 245 254 259 265
238 249 250 235 246 265 270 270 286 284 277 261 262 267 270 273 273 272 262 248 228 214 230 243 237 239 245 253 231 225 234 241 243 243 247 246 245 239 239 238 242 246 254 260
243 257 267 243 234 241 262 275 285 290 275 258 258 261 260 265 264 262 263 255 236 230 241 250 252 254 259 240 215 227 237 238 241 240 244 246 247 247 247 245 245 250 251 254
240 236 235 249 222 225 237 256 265 271 276 266 249 253 260 263 264 263 260 258 249 248 250 254 252 256 256 237 219 217 229 233 235 241 244 247 255 270 269 269 273 267 268 268
254 263 255 259 241 225 241 257 262 257 256 263 263 258 257 267 267 265 260 253 249 252 256 255 252 255 254 237 222 220 230 237 240 240 241 244 249 255 271 278 270 269 268 270
251 257 255 253 261 266 263 270 272 270 267 262 262 266 261 268 269 261 259 260 261 261 259 254 251 256 256 239 230 232 237 238 240 241 240 240 243 249 253 261 270 270 269 271
248 248 247 265 280 286 276 271 271 270 274 280 271 262 254 256 260 267 276 277 271 262 256 251 253 260 258 235 232 235 237 237 239 245 244 243 243 246 250 255 261 269 276 273
264 262 249 253 260 267 265 255 256 265 270 273 271 266 266 266 271 277 279 257 245 259 260 255 257 262 254 237 237 237 238 244 246 246 245 244 242 242 246 250 256 260 262 268
235 248 244 249 259 265 260 255 255 264 269 265 263 268 275 276 273 272 275 266 264 268 266 257 260 265 248 235 236 241 244 243 241 244 243 244 245 245 247 250 253 258 261 264
257 262 255 250 260 266 270 270 267 267 265 265 268 263 255 246 251 263 274 288 294 291 279 270 267 264 252 244 242 247 245 244 241 242 245 246 248 248 248 251 255 260 266 269
308 288 283 273 269 269 274 274 272 269 270 262 249 251 256 256 256 264 274 276 273 279 286 286 287 290 274 264 258 250 249 250 250 250 250 252 252 251 250 252 256 259 262 262
324 317 310 304 296 276 273 278 275 272 269 252 245 254 264 268 262 256 256 261 262 273 287 290 290 284 277 273 276 258 252 250 252 253 252 252 253 256 255 255 257 260 261 260
318 316 311 307 305 296 283 279 273 270 272 247 232 241 253 269 267 251 249 272 282 290 294 292 287 289 288 288 279 264 256 254 254 254 255 256 258 260 260 261 262 262 262 262
311 308 305 304 303 305 305 294 279 270 271 261 253 250 256 269 269 266 253 260 286 300 301 294 292 294 294 289 276 270 267 263 263 262 260 259 259 262 264 266 266 267 266 266
302 300 300 302 300 302 309 306 290 275 264 261 257 252 250 260 264 264 284 293 308 308 306 298 302 301 296 289 284 280 277 274 269 265 264 264 263 264 266 268 268 269 270 269
302 303 303 307 304 302 308 315 312 297 280 277 268 261 258 269 288 280 290 299 307 306 305 302 304 310 314 302 291 285 279 277 276 272 268 267 266 265 265 268 271 273 272 273
299 303 308 313 310 304 308 319 325 325 323 312 311 305 282 271 269 292 307 302 305 310 309 310 314 320 316 299 294 289 285 281 281 280 274 270 270 269 269 270 271 273 274 272
306 301 297 292 290 295 300 301 302 307 313 317 323 327 327 319 304 297 302 305 308 310 308 308 312 314 306 301 298 296 295 296 293 285 278 275 274 274 273 273 275 274 276 276
319 317 313 313 313 304 297 290 287 294 297 297 306 315 323 323 322 323 322 318 319 320 319 317 315 311 308 305 302 300 296 294 292 291 291 287 281 277 278 278 278 279 279 278